Zurück zum Katalog

OPS 4682 DEB

AktivPO
NORAD 38442·DEBRIS·🇺🇸 United States

Gestartet Apr 3, 1965 von Vandenberg Space Force Base

Loading…

Nächste Überflüge (nächste 24 Stunden)

TLE

AlterndSource: Space-Track

Epoche: Sep 9, 2026, 14:40 UTC

1 38442U 65027EX  26252.61158745 -.00000623  00000-0 -22801-2 0  9993
2 38442  90.2485   7.6791 0029665  20.3710 339.8584 12.93937841598494

Verfolge OPS 4682 DEB in Echtzeit mit AllMySat

Download on the App Store